カタログに戻る

STARLINK-37427

運用中通信VLEO
NORAD 69381·PAYLOAD·🇺🇸 United States

打ち上げ Jun 4, 2026 から Cape Canaveral Space Force Station

Loading…

次のパス (今後24時間)

TLE

最新Source: CelesTrak SupGP

元期: Sep 14, 2026, 15:27 UTC

1 69381C 26123AE  26257.64423611  .00068298  00000+0  20183-2 0  2575
2 69381  53.1571 169.0747 0001274  93.5644 166.7918 15.34349338    12

AllMySatでSTARLINK-37427をリアルタイム追跡

Download on the App Store